Location: *
(5.9261°S, 35.8586°E)
Time: 10:47:16
(UTC+00:00)

Daily predictions for brighter satellites

Satellite Brightness Start Highest point End
(mag) Time Altitude Azimuth Time Altitude Azimuth Time Altitude Azimuth
ATLAS 5 CENTAUR R/B 3.2 15:33:24 10° SW 15:37:21 30° SSE 15:48:39 10° E
SL-16 R/B 2.6 15:44:20 10° N 15:49:35 40° ENE 15:54:52 10° SE
SMAP 3.7 15:45:54 10° S 15:50:31 64° WSW 15:55:06 10° NNW
Okean 1 Rocket 3.6 15:46:54 10° SSE 15:50:51 34° E 15:54:47 10° NNE
Cosmos 1975 Rocket 3.1 15:46:45 10° N 15:51:05 59° E 15:55:24 10° SSE
Cosmos 1624 Rocket 4.5 15:50:21 10° S 15:55:14 39° ESE 16:00:04 10° NE
Meteor 2-16 Rocket 4.4 15:50:14 10° N 15:56:15 69° E 16:02:18 10° S
BLOCK DM-SL R/B 3.9 15:49:09 10° W 15:56:57 48° N 16:00:57 10° ENE
SAR-Lupe-2 4.4 15:54:26 10° NE 15:57:32 28° ESE 16:00:38 10° SSE
Cosmos 1269 Rocket 4.2 15:56:06 10° N 16:01:10 48° ENE 16:06:16 10° SSE
YAOGAN 6 3.5 16:00:05 10° SE 16:03:09 27° E 16:06:15 10° NNE
CZ-3C R/B 2.7 16:04:42 10° SW 16:06:27 13° S 16:07:42 10° SE
Cosmos 1441 Rocket 3.2 16:02:55 10° S 16:06:53 89° WNW 16:10:44 10° N
Meteor 2-15 Rocket 4.4 16:01:07 10° S 16:07:13 74° E 16:13:19 10° N
Nadezhda 1 Rocket 3.9 16:11:01 10° S 16:17:12 84° E 16:23:16 10° N
ADEOS Rocket 4.3 16:12:01 10° NE 16:18:25 29° ESE 16:24:37 10° SSE
YAOGAN 1 2.8 16:16:28 10° SSE 16:20:38 45° E 16:24:45 10° N
APEX 4.2 16:19:38 10° NW 16:22:08 33° WSW 16:24:52 10° S
CZ-4 R/B 1.1 16:18:58 10° SSE 16:22:49 74° ENE 16:26:39 10° N
CZ-3A R/B 4.1 16:18:39 10° W 16:22:50 52° S 16:46:07 10° ESE
SEDSat Delta rocket 2.7 16:20:45 10° WNW 16:24:50 89° SW 16:27:37 19° ESE
Cosmos 1371 Rocket 4.3 16:21:03 10° SSW 16:26:15 71° WNW 16:31:28 10° N
Okean 2 3.4 16:22:58 10° N 16:27:04 82° W 16:31:15 10° S
Envisat 3.3 16:27:21 10° S 16:32:25 68° WSW 16:37:27 10° NNW
GP-B 3.0 16:29:27 10° NNE 16:33:49 66° E 16:38:14 10° S
Lacrosse 4 Rocket 1.4 16:29:53 10° N 16:33:51 55° ENE 16:37:14 14° SSE
SL-4 R/B 1.9 16:31:19 10° SW 16:35:39 84° SE 16:38:12 22° NE
GPS 2-18 Rocket1 3.5 16:32:45 10° NW 16:36:22 44° NNE 16:37:17 36° ENE
Cosmos 1025 Rocket 3.4 16:32:37 10° NNE 16:36:37 39° E 16:40:39 10° SSE
Cosmos 1452 Rocket 4.2 16:33:06 10° SSE 16:37:44 31° ESE 16:38:49 29° E
ATLAS CENTAUR R/B 3.1 16:35:13 10° SSE 16:37:29 20° SE 16:37:29 20° SE
Palapa 6 Rocket 4.0 16:31:16 10° WSW 16:38:47 85° NNW 16:42:39 26° ENE
Cosmos 2082 3.6 16:35:08 10° S 16:40:50 72° ESE 16:46:31 10° NNE
CZ-3B R/B 4.1 16:17:33 10° WSW 16:40:58 71° SSE 16:49:08 26° E
Cosmos 1536 Rocket 3.5 16:37:02 10° N 16:41:18 61° E 16:45:37 10° SSE
Cosmos 2322 Rocket 2.6 16:36:00 10° NNW 16:41:32 64° WSW 16:47:08 10° S
Cosmos 1378 2.9 16:40:09 10° N 16:43:51 78° E 16:47:36 10° S
Ariane H10 4.5 16:36:32 10° WNW 16:51:51 45° N 16:53:45 30° NE
ASTEX 1 3.2 16:47:32 10° NNE 16:52:24 72° E 16:57:20 10° S
Cosmos 2237 4.2 16:46:51 10° N 16:52:24 55° ENE 16:55:41 24° SE
Hubble Space Telescope 2.2 16:50:18 10° SSW 16:53:22 25° SSE 16:53:22 25° SSE
CZ-2D R/B 3.5 16:55:32 52° NNE 16:55:32 52° NNE 16:58:33 10° N
Cosmos 2227 Rocket 3.6 16:52:46 10° SW 16:57:59 39° WNW 17:03:11 10° N
Cosmos 2181 Rocket 3.8 16:54:59 10° S 17:01:06 70° E 17:07:14 10° N
Cosmos 1455 Rocket 3.9 17:02:01 10° S 17:04:45 37° S 17:04:45 37° S
Cosmos 2322 4.5 17:02:32 10° N 17:06:08 35° NNE 17:06:08 35° NNE
Cosmos 2297 Rocket 4.2 17:03:58 10° SW 17:08:42 28° WNW 17:13:25 10° NNW
Cosmos 2251 Rocket 4.0 17:04:25 10° N 17:08:14 44° NNE 17:08:14 44° NNE
Cosmos 2360 Rocket 2.2 17:06:01 10° NNW 17:11:39 79° WSW 17:16:18 16° S
Ariane Rocket 2.8 17:13:45 60° SSE 17:14:43 88° ENE 17:19:46 10° NNW
H-2A ROCKET BODY 4.5 16:49:20 10° WNW 17:17:43 37° SW 17:23:01 17° SSE
USA 267 3.2 17:22:56 61° SE 17:22:56 61° SE 17:29:21 10° SSW
Lacrosse 5 3.4 17:21:02 10° SW 17:25:36 33° WNW 17:27:54 23° NNW
Atlas Centaur 2 3.3 17:22:03 10° SW 17:23:26 22° SW 17:23:26 22° SW
Gbstr 26 Del rocket 4.3 17:25:20 10° SSW 17:28:29 42° SSW 17:28:29 42° SSW
IRS-1A Rocket 4.3 17:30:35 80° SW 17:30:45 82° WSW 17:36:33 10° NNW
Ariane H10+ 4.0 17:25:41 10° W 17:38:27 66° N 17:38:43 65° N
CZ-3B R/B 4.0 17:20:38 10° WNW 17:51:04 70° NNE 17:51:49 68° NE
H-2A R/B 4.4 18:08:01 10° SW 18:11:45 20° SW 18:11:45 20° SW
CZ-3B R/B 4.3 18:47:18 10° WSW 18:59:16 40° WNW 18:59:16 40° WNW
